Flag for Finland Weather past 2 weeks in Lappeenranta, Finland

Now
27 °F

Scattered clouds.


Feels Like: 16 °F
Forecast: 22 / 26 °F
Wind: 13 mph from West

Location: Lappeenranta

Current Time: Dec 21, 2014 at 1:01:39 PM

Latest Report: Dec 21, 2014 at 12:20 PM


Visibility: N/A

Pressure: 29.21 "Hg

Humidity: 74%

Dew point: 19 °F

Location of LappeenrantaLocation

Historic Weather in Lappeenranta — Graph

°F

Lappeenranta temperature yesterday

Maximum temperature yesterday: 36 °F (at 12:20 AM)
Minimum temperature yesterday: 30 °F (at 3:50 PM)
Average temperature yesterday: 32 °F

Past Weeks' High & Low Weather Summary

 TemperatureHumidityPressure
High37 °F (Dec 7, 3:50 PM)100% (Dec 6, 5:20 PM)30.04 "Hg (Dec 6, 5:20 PM)
Low25 °F (Dec 14, 9:50 AM)74% (Dec 21, 10:20 AM)28.77 "Hg (Dec 13, 12:20 PM)
Average33 °F94%29.52 "Hg
* Reported Dec 6 11:20 AM — Dec 21 11:50 AM, Lappeenranta, Weather by CustomWeather, © 2014

Note: Actual official high and low records may vary slightly from our data, if they occured in-between our weather recording intervals... More about our weather records

Advertising

Lappeenranta weather history for previous 24 hours

 ConditionsComfort  
Time TempWeatherWind HumidityBarometerVisibility
11:50 AM
Dec 21
27 °FScattered clouds.13 mph80%29.21 "HgN/A
11:20 AM28 °FPartly sunny.13 mph74%29.21 "HgN/A
10:50 AM28 °FPartly sunny.12 mph80%29.21 "HgN/A
10:20 AM28 °FPartly sunny.13 mph74%29.21 "HgN/A
9:50 AM28 °FBroken clouds.12 mph80%29.18 "HgN/A
9:20 AM30 °FPartly sunny.8 mph80%29.18 "HgN/A
8:50 AM30 °FPassing clouds.10 mph80%29.18 "HgN/A
8:20 AM30 °FLight snow. Mostly cloudy.12 mph80%29.18 "HgN/A
7:50 AM30 °FLight snow. Mostly cloudy.9 mph80%29.15 "HgN/A
7:20 AM30 °FMostly cloudy.10 mph86%29.15 "HgN/A
6:50 AM30 °FPassing clouds.9 mph86%29.15 "HgN/A
6:20 AM28 °FLight snow. Mostly cloudy.7 mph93%29.15 "Hg2 mi
5:50 AM30 °FLight snow. Partly cloudy.10 mph86%29.15 "HgN/A
5:20 AM28 °FLight snow. Overcast.9 mph93%29.15 "Hg3 mi
4:50 AM28 °FLight snow. Partly cloudy.10 mph93%29.12 "HgN/A
4:20 AM28 °FLight snow. Passing clouds.10 mph93%29.12 "HgN/A
3:50 AM30 °FSnow flurries. Partly cloudy.10 mph86%29.12 "HgN/A
3:20 AM30 °FLight snow. Overcast.9 mph86%29.12 "Hg2 mi
2:50 AM30 °FLight snow. Partly cloudy.10 mph86%29.09 "Hg5 mi
1:50 AM30 °FLight snow. Partly cloudy.8 mph93%29.09 "HgN/A
1:20 AM30 °FPassing clouds.9 mph93%29.09 "HgN/A
12:50 AM30 °FPartly cloudy.9 mph93%29.09 "HgN/A
12:20 AM30 °FSnow flurries. Passing clouds.7 mph93%29.06 "Hg4 mi
11:50 PM
Dec 20
30 °FSprinkles. Overcast.10 mph93%29.06 "HgN/A
11:20 PM30 °FSprinkles. Partly cloudy.12 mph93%29.06 "HgN/A
10:50 PM32 °FPartly cloudy.10 mph87%29.06 "HgN/A
10:20 PM32 °FPassing clouds.12 mph87%29.06 "HgN/A
9:50 PM30 °FMostly cloudy.9 mph93%29.03 "HgN/A
9:20 PM30 °FOvercast.12 mph93%29.03 "HgN/A
8:50 PM30 °FOvercast.10 mph93%29.03 "HgN/A
8:20 PM30 °FOvercast.9 mph93%29.03 "HgN/A
7:50 PM30 °FOvercast.9 mph93%29.03 "HgN/A
6:50 PM30 °FOvercast.8 mph93%29.03 "HgN/A
6:20 PM32 °FOvercast.9 mph87%29.03 "HgN/A
5:50 PM32 °FOvercast.10 mph87%29.00 "HgN/A
5:20 PM32 °FOvercast.9 mph87%29.00 "HgN/A
4:50 PM32 °FOvercast.10 mph87%29.00 "HgN/A
4:20 PM32 °FOvercast.12 mph87%29.00 "HgN/A
3:50 PM30 °FPassing clouds.9 mph93%29.00 "HgN/A
3:20 PM32 °FPassing clouds.8 mph87%29.00 "HgN/A
2:50 PM32 °FPassing clouds.10 mph87%28.97 "HgN/A
1:50 PM32 °FPartly sunny.10 mph87%28.97 "HgN/A
Weather by CustomWeather, © 2014

See weather overviewHow to use our weather pages